Weather in Andreyevka

Russia / Ulyanovsk Oblast     54°08′58″N   48°50′33″E
temp.,
°C
wind,
m/s
gust,
m/s
humid.,
%
clouds,
%
prec.,
mm/h
press.,
hPa
HPBL,
m
15 may, sat
sat1501:00+18sse447291 0.0 101951
04:00+16se486753 0.0 1019103
07:00+18sse366469 0.0 1019117
10:00+25sse5104176 0.0 1019490
13:00+28s71133100 0.0 10191030
16:00+28s6113576 0.0 10181316
19:00+24s485015 0.0 1018121
22:00+19sse495586 0.0 1018104
16 may, sun
sun1601:00+18sse512557 0.0 1017173
04:00+17sse5115812 0.0 1017167
07:00+18sse510645 0.0 1017188
10:00+25s5104416 0.0 1017563
13:00+28ssw710327 0.0 10171600
16:00+28ssw5836100 0.0 10171503
19:00+24ssw3651100 0.0 101679
22:00+20s2251100 0.0 101714
17 may, mon
mon1701:00+19s235596 0.0 101722
04:00+17s115925 0.0 101711
07:00+20s236064 0.0 101888
10:00+25sw244638 0.0 1018374
13:00+27ssw353783 0.0 1019589
16:00+30s452899 0.0 10182211
19:00+26ssw224666 0.0 101819
22:00+21sse114598 0.0 101811
18 may, tue
tue1801:00+19se4650100 0.0 101866
04:00+18sse3349100 0.0 101832
07:00+20sse235352 0.0 101886
10:00+25sse464099 0.0 1018355
13:00+28sse573435 0.0 1017775
16:00+29sse4637100 0.0 1016972
19:00+26se34498 0.0 101665
22:00+21se33425 0.0 101622
19 may, wed
wed1901:00+19se465312 0.0 101671
04:00+18se494967 0.0 1016113
07:00+20se495612 0.0 1016178
10:00+25se584178 0.0 1015390
13:00+29se67335 0.0 10141395
16:00+30se5103315 0.0 10133022
19:00+25se8155029 0.0 1012551
22:00+21ese715600 0.0 1012306